Simultaneous Nadir Overpasses (SNOs) Predictions

Prediction of SNOs between GOES-15 and METOP-A Satellite Orbit:

Table of predicted SNOs for the next 14.0 days since TLE Epoch: 7/4/2014
Index Date Time (GOES-15) GOES-15 Lat,Lon METOP-A Lat,Lon Distance(km) Time Diff (sec)
1 07/05/2014 06:50:27 0.05,-135.35 -0.91,-139.73 498.73 80
2 07/06/2014 06:27:09 0.07,-135.34 0.19,-134.74 67.84 80
3 07/07/2014 18:48:41 -0.05,-135.31 0.86,-139.29 453.94 80
4 07/08/2014 18:25:23 -0.06,-135.29 -0.30,-134.31 112.11 80
5 07/10/2014 06:47:05 0.04,-135.24 -0.79,-138.90 416.69 80
6 07/11/2014 06:23:47 0.06,-135.21 0.37,-133.91 148.79 80
7 07/12/2014 18:45:20 -0.04,-135.18 0.67,-138.47 374.55 80
8 07/13/2014 18:22:01 -0.06,-135.15 -0.43,-133.47 190.54 80
9 07/15/2014 06:43:42 0.04,-135.09 -0.65,-138.06 339.26 80
10 07/16/2014 06:20:25 0.06,-135.06 0.51,-133.08 225.65 80
11 07/17/2014 18:41:57 -0.03,-135.01 0.53,-137.63 298.29 80




NCC Satellite Simultaneous Nadir Overpasses (SNOs) Prediction Service
